Location: Alta Loma Basin Number 1 87-006 Dam
(34.1433°N, 117.5876°W)
Time: 02:42:43
(UTC+00:00)

Daily predictions for brighter satellites

Satellite Brightness Start Highest point End
(mag) Time Altitude Azimuth Time Altitude Azimuth Time Altitude Azimuth
Sich 1 Rocket 4.4 01:05:48 10° NNE 01:09:39 29° ENE 01:13:28 10° SE
Cosmos 2026 Rocket 4.0 01:03:54 10° S 01:09:52 65° E 01:15:52 10° NNE
Cosmos 1666 2.6 01:06:59 10° N 01:10:43 84° E 01:14:26 10° S
CZ-4 R/B 3.2 01:10:06 10° E 01:11:13 11° ENE 01:12:20 10° NE
Okean 1-7 3.0 01:07:40 10° S 01:12:00 82° E 01:16:22 10° N
Okean O Rocket 3.2 01:09:39 10° S 01:13:42 39° W 01:17:47 10° NNW
Centaur D-1A AC-31 2.4 01:11:14 10° WSW 01:14:13 37° S 01:20:37 10° ESE
SMAP 3.0 01:10:55 10° SSE 01:15:31 65° ENE 01:20:08 10° N
NOAA 12 4.5 01:12:23 10° SE 01:17:19 42° ENE 01:22:16 10° N
CZ-4C R/B 2.5 01:13:41 10° S 01:18:02 37° ESE 01:22:57 10° NE
STARLINK-48 4.2 01:15:15 10° WSW 01:19:00 49° NW 01:22:48 10° NE
Delta 2 Rocket 3.9 01:15:20 10° W 01:20:46 76° N 01:25:33 10° E
STARLINK-69 4.4 01:17:47 10° SSW 01:21:28 36° SE 01:24:54 12° ENE
STARLINK-66 4.3 01:19:23 10° SSW 01:23:05 36° SE 01:26:26 12° ENE
OAO 2 Rocket 3.7 01:20:03 10° W 01:24:56 63° SSW 01:29:54 10° ESE
Cosmos 1908 Rocket 4.1 01:21:44 10° NNW 01:26:03 64° W 01:30:19 10° S
Cosmos 1975 3.7 01:22:59 10° NNE 01:26:30 29° ENE 01:30:00 10° SE
STARLINK-70 4.1 01:24:13 10° SSW 01:28:00 41° SE 01:31:12 14° ENE
Gbstr 26 Del rocket 4.2 01:21:32 10° SW 01:29:12 85° SE 01:35:19 11° NE
STARLINK-68 4.0 01:25:54 10° SSW 01:29:45 46° SE 01:32:55 14° ENE
COBE Rocket 4.4 01:26:19 10° N 01:30:56 59° WNW 01:35:38 10° SSW
STARLINK-58 4.0 01:27:29 10° SSW 01:31:20 45° SE 01:34:25 15° ENE
YAOGAN 1 3.9 01:29:21 10° ESE 01:32:13 18° ENE 01:35:05 10° NNE
STARLINK-62 3.9 01:29:09 10° SSW 01:33:02 49° SE 01:36:06 15° ENE
STARLINK-63 3.9 01:30:44 10° SSW 01:34:36 49° SE 01:37:34 16° ENE
OAO 3 Copernicus 4.3 01:29:55 10° W 01:35:00 86° N 01:39:13 15° E
Meteor 1-19 Rocket 4.2 01:30:11 10° S 01:35:36 63° E 01:40:59 10° NNE
COSMO-SKYMED 1 2.8 01:31:35 10° NNE 01:35:48 48° E 01:39:59 10° S
Okean 3 3.8 01:32:25 10° SSE 01:36:22 42° E 01:40:19 10° NNE
CZ-3B R/B 2.8 01:33:41 10° SSW 01:36:31 21° SSE 01:40:36 10° ESE
STARLINK-72 3.9 01:33:57 10° SSW 01:37:50 51° SE 01:40:39 17° ENE
STARLINK-59 3.7 01:37:15 10° SSW 01:41:12 58° SE 01:43:56 19° ENE
Cosmos 1867 3.6 01:36:11 10° NNW 01:41:32 55° ENE 01:46:49 10° SE
Okean-O 2.6 01:37:18 10° SSE 01:41:41 66° ENE 01:46:04 10° N
Cosmos 921 Rocket 3.4 01:38:31 10° NNW 01:42:50 68° WSW 01:47:12 10° S
Cosmos 2297 3.9 01:37:10 10° NNW 01:42:50 78° WSW 01:48:26 10° SSE
Cosmos 405 4.5 01:40:50 10° SE 01:43:14 18° E 01:43:14 18° E
STARLINK-55 3.6 01:40:34 10° SSW 01:44:31 63° SE 01:47:07 20° NE
Cosmos 676 Rocket 4.3 01:40:15 10° SSW 01:45:23 70° WNW 01:50:34 10° NNE
STARLINK-28 3.6 01:42:12 10° SW 01:46:11 67° SE 01:48:44 21° NE
STARLINK-53 3.5 01:45:29 10° SW 01:49:29 72° SE 01:51:55 23° NE
Cosmos 1954 Rocket 4.3 01:45:23 10° SSW 01:50:30 67° WNW 01:55:41 10° N
STARLINK-54 3.5 01:47:08 10° SW 01:51:08 76° SE 01:53:31 23° NE
Cosmos 1743 3.0 01:48:38 10° N 01:52:30 72° W 01:56:22 10° S
Shenzhou-11 Module 4.2 01:50:29 10° W 01:52:42 22° SW 01:54:53 10° SSE
Sakura Rocket 4.4 01:48:18 10° WSW 01:52:47 44° S 01:58:37 11° ESE
Meteor 2-13 Rocket 4.4 01:47:06 10° S 01:53:04 68° E 01:59:07 10° NNE
STARLINK-34 3.4 01:50:25 10° SW 01:54:26 82° SE 01:56:41 25° NE
STARLINK-26 3.6 01:52:42 10° SW 01:56:09 59° NW 01:58:05 24° NNE
STARLINK-61 4.0 01:53:05 10° WSW 01:57:01 55° NW 01:59:30 21° NNE
STARLINK-81 3.4 01:53:32 10° SW 01:57:32 79° SE 01:59:36 28° NE
STARLINK-24 3.5 01:55:22 10° SW 01:59:23 89° NW 02:01:27 28° NE
BREEZE-M DEB (TANK) 3.8 01:57:33 10° NW 01:59:54 17° N 02:00:06 17° NNE
STARLINK-77 3.4 01:56:50 10° SW 02:00:50 86° SE 02:02:46 30° NE
STARLINK-25 3.4 01:58:27 10° SW 02:02:28 89° SE 02:04:20 31° NE
STARLINK-71 3.5 02:00:20 10° SW 02:04:21 78° NW 02:06:14 30° NE
Cosmos 1461 2.6 02:00:31 10° SSW 02:04:25 77° ESE 02:06:18 29° NE
IRIDIUM 104 4.4 01:59:37 10° SSE 02:04:40 54° E 02:09:45 10° NNE
ADEOS Rocket 4.3 02:07:04 17° ESE 02:07:04 17° ESE 02:09:23 10° SE
STARLINK-79 3.5 02:01:47 10° SW 02:05:48 85° NW 02:07:33 32° NE
STARLINK-78 3.5 02:03:28 10° SW 02:07:28 81° NW 02:09:10 33° NE
Cosmos 1943 3.1 02:01:50 10° SSW 02:07:29 81° ESE 02:12:08 16° NNE
Aureole 3 Rocket 2.3 02:05:46 19° N 02:07:50 59° E 02:11:26 10° SSE
Meteor 2-9 Rocket 4.2 02:02:06 10° N 02:07:56 75° E 02:13:36 10° SSE
NOSS 2-1 (E) 4.3 02:05:38 10° S 02:08:10 25° SE 02:08:10 25° SE
STARLINK-57 3.6 02:05:13 10° SW 02:09:13 74° NW 02:10:53 34° NE
STARLINK-49 3.6 02:06:46 10° SW 02:10:46 75° NW 02:12:20 35° NE
Cosmos 1655 Rocket 4.1 02:05:07 10° S 02:11:25 84° W 02:17:43 10° N
STARLINK-27 3.6 02:08:25 10° SW 02:12:25 72° NW 02:13:55 36° NNE
IRIDIUM 114 4.2 02:08:38 10° S 02:13:48 68° E 02:18:58 10° N
Cosmos 2151 Rocket 3.5 02:09:41 10° N 02:14:02 59° E 02:18:20 10° SSE
STARLINK-74 3.7 02:10:04 10° SW 02:14:04 70° NW 02:15:30 37° NNE
Meteor 1-12 Rocket 4.3 02:08:36 10° N 02:14:19 57° E 02:19:53 10° SSE
Envisat 3.6 02:09:54 10° S 02:14:54 60° W 02:19:55 10° NNW
STARLINK-39 3.7 02:11:45 10° SW 02:15:45 67° NW 02:17:07 38° NNE
STARLINK 3.8 02:13:25 10° SW 02:17:23 64° NW 02:18:42 39° NNE
Cosmos 1741 Rocket 3.9 02:13:48 10° SSW 02:19:04 82° ESE 02:22:31 22° NNE
SL-4 R/B 4.3 02:17:00 10° N 02:17:26 11° N 02:17:26 11° N
STARLINK-42 3.9 02:15:12 10° WSW 02:19:09 58° NW 02:20:26 38° NNE
OAO 3 Rocket 4.1 02:15:12 10° W 02:19:38 42° SSW 02:22:42 18° SE
STARLINK-21 3.9 02:16:46 10° WSW 02:20:44 59° NW 02:21:55 40° NNE
STARLINK-45 4.2 02:18:41 10° WSW 02:22:36 50° NW 02:23:47 36° N
IRIDIUM 103 4.2 02:17:44 10° S 02:22:57 84° E 02:28:10 10° N
Meteor 1-13 Rocket 4.1 02:17:52 10° S 02:23:29 79° E 02:28:22 14° NNE
STARLINK-75 4.3 02:20:31 10° WSW 02:24:22 45° NW 02:25:31 35° N
Cosmos 2369 Rocket 2.1 02:19:59 10° NNW 02:25:36 66° ENE 02:31:14 10° SSE
STARLINK-76 4.1 02:21:46 10° WSW 02:25:41 52° NW 02:26:41 41° N
Cosmos 405 Rocket 2.7 02:22:45 10° NNW 02:26:28 74° W 02:30:13 10° S
USA 81 3.9 02:22:01 10° S 02:27:14 70° E 02:31:02 19° N
STARLINK 4.2 02:23:26 10° WSW 02:27:20 50° NW 02:28:16 41° N
BREEZE-M DEB (TANK) 3.1 02:26:12 10° NW 02:27:47 28° NW 02:27:47 28° NW
STARLINK-32 4.2 02:25:07 10° WSW 02:29:00 48° NW 02:29:52 40° N
STARLINK-40 4.3 02:26:47 10° WSW 02:30:39 46° NW 02:31:26 40° N
STARLINK-44 4.3 02:28:27 10° WSW 02:32:18 45° NW 02:33:02 40° N
STARLINK-37 4.4 02:30:17 10° WSW 02:34:06 41° NW 02:34:46 38° NNW
Cosmos 2084 Rocket 4.0 02:30:52 10° SW 02:35:10 56° NW 02:36:27 40° N
STARLINK-36 4.4 02:31:30 10° WSW 02:35:19 42° NW 02:35:55 39° NNW
Cosmos 1850 Rocket 4.3 02:30:09 10° SSW 02:35:21 66° WNW 02:38:48 22° N
Meteor 1-23 Rocket 4.3 02:30:00 10° SSE 02:35:33 52° E 02:36:08 50° ENE
STARLINK-41 4.4 02:33:26 10° WSW 02:37:15 41° NW 02:37:45 39° NNW
STARLINK-64 4.5 02:35:09 10° WSW 02:38:56 39° NW 02:39:21 38° NNW
YAOGAN 6 4.4 02:36:20 10° SSW 02:39:30 31° W 02:42:43 10° NNW
Cosmos 2266 Rocket 4.2 02:33:36 10° SSW 02:39:59 74° W 02:46:23 10° N
Okean 2 Rocket 4.4 02:36:02 10° NNW 02:40:15 40° W 02:44:27 10° SSW
Lacrosse 5 3.5 02:36:58 10° W 02:41:16 27° NW 02:43:28 20° N
Cosmos 1943 Rocket 2.3 02:36:59 10° NNW 02:42:35 71° WSW 02:48:05 10° SSE
USA 267 3.1 02:38:27 24° SE 02:42:44 82° NE 02:49:19 10° NW
Meteor 2-19 Rocket 4.3 02:36:51 10° S 02:42:51 62° E 02:44:20 48° NE
S3M 4.4 02:38:47 10° NNW 02:44:49 60° W 02:50:47 10° S
CZ-4 R/B 2.5 02:42:10 10° S 02:45:50 41° W 02:49:30 10° NNW
CSL-04 Rocket 3.9 02:46:19 10° S 02:51:32 66° WSW 02:56:49 10° NNW
NOSS 3-1 (C) 4.0 02:47:36 10° NNW 02:55:28 68° ENE 02:59:12 37° SE
Cosmos 1066 Rocket 4.4 02:57:38 10° S 03:02:25 60° SSE 03:02:25 60° SSE
Delta 2 Rocket 4.2 02:58:24 10° WNW 03:02:28 56° WNW 03:02:28 56° WNW
CZ-4C R/B 3.9 03:02:33 10° W 03:06:37 24° NW 03:08:40 20° NNW
USA 229 DEB 3.7 02:59:31 10° NNW 03:06:56 81° ENE 03:08:43 56° SE
USA 229 3.7 02:59:37 10° NNW 03:07:01 80° ENE 03:08:41 58° SE
YAOGAN 1 4.2 03:04:08 10° SSW 03:08:01 33° W 03:11:55 10° NNW
NOSS 3-1 (A) 4.2 03:04:55 10° NNW 03:11:54 57° NE 03:11:54 57° NE
CZ-3B R/B 3.0 03:24:51 10° WSW 03:27:50 35° SW 03:27:50 35° SW
Cosmos 2344 4.5 03:22:39 10° NNW 03:33:18 79° ENE 03:39:43 40° SE
ATLAS 3B CENTAUR R/B 4.2 04:01:44 10° SW 04:08:44 53° S 04:08:44 53° S
